THORAD AGENA D DEB

Satellite information

Favourite Embed

Satellite Type and Status

DEBRISIN ORBIT

Key statistics

Satellite THORAD AGENA D DEB at a glance.

Uptime

20338

Days in orbit

Revolutions

≈ 14.0

Per day

Orbit

SSO

Sun Synchronous Orbit

Inclination

100.2

Latest

Satellite identification and parameters

Extended collection of information and parameters for THORAD AGENA D DEB.

Object identification

Identified? True

Debris? True

Object name: THORAD AGENA D DEB

International designator: 1970-025HP

Object number (NORAD): 4993

Object ID (CCSDS): 4993

Country: UNITED STATES OF AMERICA (US)

Current information (Y/N): Y

RCS size: SMALL

Orbital parameters

Period: 102.742 minutes

Inclination: 100.1804 deg

SMA: 7266.526 km

Apoapsis: 948.839 km

Periapsis: 827.943 km

RAAN: 108.0388 deg

Eccentricy: 0.00831869

Argument of periapsis: 131.804 deg

Mean anomaly: 229.0266 deg

Mean motion: 14.01562719 rev/day

Mean motion (dot): 0.00002213 rev/day2

B* drag term: 0.0014525145 1/REarth

Two-line elements (TLE)

Creation date: Dec. 12, 2025, 10:14 a.m.

Reference frame: TEME

Reference center: EARTH

Epoch: Dec. 12, 2025, 6:45 a.m. UTC

TLE line 0: 0 THORAD AGENA D DEB

TLE line 1: 1 04993U 70025HP 25346.28189633 .00002213 00000-0 14525-2 0 9996

TLE line 2: 2 04993 100.1804 108.0388 0083187 131.8040 229.0266 14.01562719812546

Live tracking on map

Real-time ground track for satellite THORAD AGENA D DEB.

In-orbit conjunctions

A list of the most updated potential collisions computed for object THORAD AGENA D DEB.

Target Orbit TCA Probability of collision Miss distance Type
CZ-6A DEB SSO 2025-06-22 23:24:24 0.0004371324 79.0 (m) DEBRIS
SL-14 R/B LEO 2025-02-09 17:42:01 0.0001007557 185.0 (m) ROCKET BODY
COSMOS 1932 LEO 2025-01-24 15:49:55 0.0003759854 226.0 (m) PAYLOAD
FENGYUN 1C DEB SSO 2024-11-16 17:23:14 0.0001023645 195.0 (m) DEBRIS
METEOR 2-17 DEB LEO 2024-09-26 02:55:07 0.0005306547 228.0 (m) DEBRIS

Associated space launch

Meteorological research and development satellite

THORAD AGENA D DEB was lifted into orbit during the mission ‘Thorad SLV-2G Agena D | Nimbus 4’, on board a Thorad SLV-2G Agena D space rocket.

The launch took place on April 8, 1970, 8:17 a.m. from Space Launch Complex 2E.

For more information about the launch, click the button.

Launch to space Thorad SLV-2G Agena D | Nimbus 4
Thorad SLV-2G Agena D | Nimbus 4

Agency: N/A

Status: Launch Successful

Launch date: April 8, 1970, 8:17 a.m. UTC

Rocket: Thorad SLV-2G Agena D

Launch pad: Space Launch Complex 2E

Location: Vandenberg SFB, CA, USA

...

Latest news about this satellite

There are no fresh news available about this satellite. Check back as we update our databases every day.


Newsletter sign-up

Weekly statistics, charts and insights to help you stay on top of the space industry.